CW0099 Weather Reports


Display with metric or nautical units.
time (UTC)temp
F
wind
direction
speed
MPH
gust
MPH
rain 1hr
in
rain 24hr
in
rain mn
in
humidity
%
barometer
mb
20170629102643 75 309 0.0 0.0 0.00 0.00 0.00 79 1014.0
20170629100443 75 309 0.0 0.0 0.00 0.00 0.00 78 1014.2
20170629094243 75 308 0.0 0.0 0.00 0.00 0.00 78 1014.2
20170629093148 75 308 0.0 0.0 0.00 0.00 0.00 78 1014.1
20170629092043 75 308 0.0 0.0 0.00 0.00 0.00 78 1014.0
20170629090943 75 260 0.0 0.0 0.00 0.00 0.00 79 1014.0
20170629085843 75 307 0.0 9.0 0.00 0.00 0.00 79 1013.8
20170629084743 75 172 0.0 9.0 0.00 0.00 0.00 81 1013.9
20170629083643 74 359 0.0 6.0 0.00 0.00 0.00 83 1014.2
20170629080343 74 184 0.0 0.0 0.00 0.00 0.00 83 1013.5
20170629074143 74 184 0.0 0.0 0.00 0.00 0.00 82 1013.5
20170629073043 74 184 0.0 0.0 0.00 0.00 0.00 81 1013.6
20170629072710 74 184 0.0 0.0 0.00 0.00 0.00 81 1013.5
20170629060254 76 177 3.0 4.0 0.00 0.00 0.00 77 1013.0
20170629055143 76 153 0.0 7.0 0.00 0.00 0.00 76 1012.8
20170629052943 76 157 6.0 8.0 0.00 0.00 0.00 74 1013.0
20170629051844 76 170 0.0 8.0 0.00 0.00 0.00 73 1012.9
20170629042343 78 158 0.0 9.0 0.00 0.00 0.00 70 1012.6
20170629041243 78 156 3.0 9.0 0.00 0.00 0.00 70 1012.5
20170629040143 78 186 1.0 10.0 0.00 0.00 0.00 69 1012.3
20170629035043 78 171 3.0 10.0 0.00 0.00 0.00 69 1012.4
20170629033943 78 147 2.0 7.0 0.00 0.00 0.00 68 1012.2
20170629032843 79 172 7.0 10.0 0.00 0.00 0.00 68 1012.1
20170629031743 79 190 5.0 10.0 0.00 0.00 0.00 68 1012.0
20170629025543 79 169 2.0 10.0 0.00 0.00 0.00 68 1011.7
20170629024443 79 169 4.0 8.0 0.00 0.00 0.00 67 1011.7
20170629023343 80 160 3.0 6.0 0.00 0.00 0.00 66 1011.8
20170629021143 80 147 0.0 7.0 0.00 0.00 0.00 63 1011.6
20170629020044 81 166 4.0 6.0 0.00 0.00 0.00 61 1012.0
20170629014943 82 188 0.0 5.0 0.00 0.00 0.00 60 1012.1
20170629013845 82 148 0.0 4.0 0.00 0.00 0.00 59 1011.8
20170629012743 82 162 3.0 8.0 0.00 0.00 0.00 58 1011.5
20170629010543 83 204 6.0 7.0 0.00 0.00 0.00 55 1011.1
20170629005443 83 212 4.0 9.0 0.00 0.00 0.00 54 1011.0
20170629004343 84 227 0.0 9.0 0.00 0.00 0.00 54 1011.0
20170629001045 84 149 4.0 11.0 0.00 0.00 0.00 53 1010.4
20170628235943 85 86 0.0 15.0 0.00 0.00 0.00 52 1010.2
20170628233743 85 168 6.0 10.0 0.00 0.00 0.00 53 1010.6
20170628232643 86 172 4.0 17.0 0.00 0.00 0.00 53 1010.7
20170628230443 86 177 10.0 14.0 0.00 0.00 0.00 53 1010.8
20170628225343 86 160 5.0 14.0 0.00 0.00 0.00 54 1010.7
20170628224243 86 197 5.0 14.0 0.00 0.00 0.00 55 1010.9
20170628223143 86 185 3.0 16.0 0.00 0.00 0.00 54 1011.1
20170628222043 86 165 11.0 16.0 0.00 0.00 0.00 55 1011.3
20170628220943 86 199 2.0 16.0 0.00 0.00 0.00 56 1011.3
20170628215843 86 104 8.0 17.0 0.00 0.00 0.00 55 1011.4
20170628214743 86 138 0.0 17.0 0.00 0.00 0.00 56 1011.3
20170628213643 86 148 3.0 17.0 0.00 0.00 0.00 57 1011.3
20170628212543 86 159 6.0 17.0 0.00 0.00 0.00 56 1011.7
20170628211449 86 184 13.0 16.0 0.00 0.00 0.00 56 1011.8
20170628210343 86 148 6.0 12.0 0.00 0.00 0.00 57 1011.9
20170628205246 86 178 3.0 17.0 0.00 0.00 0.00 56 1012.0
20170628204143 85 159 13.0 17.0 0.00 0.00 0.00 57 1012.2
20170628203043 85 140 8.0 14.0 0.00 0.00 0.00 58 1012.2
20170628201943 85 180 7.0 14.0 0.00 0.00 0.00 59 1012.4
20170628200843 84 133 0.0 11.0 0.00 0.00 0.00 60 1012.6
20170628195743 84 148 9.0 17.0 0.00 0.00 0.00 58 1012.8
20170628193543 84 126 3.0 8.0 0.00 0.00 0.00 60 1013.3
20170628190243 83 74 0.0 8.0 0.00 0.00 0.00 60 1013.4
20170628185143 82 165 7.0 17.0 0.00 0.00 0.00 59 1013.7
20170628184043 83 162 6.0 13.0 0.00 0.00 0.00 59 1013.8
20170628182943 83 153 4.0 13.0 0.00 0.00 0.00 58 1014.1
20170628180743 82 174 5.0 13.0 0.00 0.00 0.00 60 1014.2
20170628174543 81 149 3.0 13.0 0.00 0.00 0.00 63 1014.7
20170628173443 80 157 7.0 13.0 0.00 0.00 0.00 66 1014.8
20170628170143 79 158 6.0 11.0 0.00 0.00 0.00 69 1015.2
20170628165043 79 163 4.0 11.0 0.00 0.00 0.00 68 1015.2
20170628163943 79 154 6.0 10.0 0.00 0.00 0.00 70 1015.2
20170628161743 79 179 7.0 10.0 0.00 0.00 0.00 69 1015.6
20170628160643 78 157 9.0 10.0 0.00 0.00 0.00 69 1015.8
20170628154443 77 212 3.0 12.0 0.00 0.00 0.00 74 1016.1
20170628150112 76 136 6.0 10.0 0.00 0.00 0.00 76 1016.7
20170628144943 75 172 6.0 10.0 0.00 0.00 0.00 76 1016.9
20170628143844 74 167 0.0 10.0 0.00 0.00 0.00 76 1016.8
20170628142743 74 141 6.0 11.0 0.00 0.00 0.00 75 1016.8
20170628140543 73 165 4.0 11.0 0.00 0.00 0.00 75 1017.0
20170628135443 72 156 5.0 9.0 0.00 0.00 0.00 76 1017.0
20170628134343 72 250 2.0 7.0 0.00 0.00 0.00 77 1017.0
20170628133249 71 185 3.0 6.0 0.00 0.00 0.00 79 1016.8
20170628131044 69 132 4.0 7.0 0.00 0.00 0.00 82 1016.5
20170628124843 68 169 3.0 6.0 0.00 0.00 0.00 83 1016.5
20170628123743 66 150 2.0 6.0 0.00 0.00 0.00 84 1016.4
20170628122643 66 165 0.0 3.0 0.00 0.00 0.00 85 1016.3
20170628120444 65 166 2.0 3.0 0.00 0.00 0.00 85 1016.4
20170628115343 65 175 0.0 2.0 0.00 0.00 0.00 86 1016.4
20170628114244 64 176 0.0 2.0 0.00 0.00 0.00 86 1016.4
20170628113144 64 183 0.0 1.0 0.00 0.00 0.00 86 1016.2
20170628112044 63 183 0.0 0.0 0.00 0.00 0.00 86 1016.4
20170628110943 63 183 0.0 0.0 0.00 0.00 0.00 87 1016.3
20170628105844 63 183 0.0 0.0 0.00 0.00 0.00 86 1016.3
20170628104743 63 183 0.0 0.0 0.00 0.00 0.00 86 1016.0